Home   Weather   Prince Albert   Past weeks

Flag for Canada Past Weather in Prince Albert, Saskatchewan, Canada — Yesterday and Last 2 Weeks

Now
0 °F

Light snow. Overcast.


Feels Like: -17 °F
Forecast: -8 / -1 °F
Wind: 10 mph from Northwest

Location: Prince Albert

Current Time: Dec 8, 2016 at 12:18:38 am

Latest Report: Dec 7, 2016 at 11:00 pm


Visibility: 12 mi

Pressure: 30.76 "Hg

Humidity: 71%

Dew Point: -8 °F

Location of Prince AlbertLocation

Past Weather in Prince Albert — Graph

°F

Prince Albert Temperature Yesterday

Maximum temperature yesterday: 7 °F (at 1:00 pm)
Minimum temperature yesterday: -2 °F (at 7:00 pm)
Average temperature yesterday: 3 °F

High & Low Weather Summary for the Past Weeks

 TemperatureHumidityPressure
High34 °F (Nov 24, 3:00 pm)100% (Nov 24, 5:00 pm)30.76 "Hg (Nov 24, 5:00 pm)
Low-2 °F (Dec 7, 7:00 pm)66% (Dec 5, 10:00 pm)29.40 "Hg (Nov 28, 12:00 am)
Average23 °F86%29.98 "Hg
* Reported Nov 22 11:00 pm — Dec 7 11:00 pm, Prince Albert, Weather by CustomWeather, © 2016

Note: Actual official high and low records may vary slightly from our data, if they occured in-between our weather recording intervals... More about our weather records

Advertising

Prince Albert Weather History for the Previous 24 Hours

Scroll right to see more
 ConditionsComfort  
Time TempWeatherWind HumidityBarometerVisibility
11:00 pm
Wed, Dec 7
0 °FLight snow. Overcast.10 mph71%30.76 "Hg12 mi
10:00 pm0 °FLight snow. Overcast.10 mph71%30.74 "Hg12 mi
9:00 pm0 °FLight snow. Overcast.9 mph71%30.73 "Hg12 mi
8:00 pm0 °FLight snow. Overcast.10 mph71%30.73 "Hg15 mi
7:00 pm-2 °FPassing clouds.8 mph77%30.71 "Hg15 mi
6:00 pm1 °FLight snow. Overcast.10 mph71%30.69 "Hg15 mi
5:00 pm3 °FLight snow. Passing clouds.9 mph66%30.68 "Hg15 mi
4:00 pm3 °FLight snow. Partly sunny.12 mph66%30.65 "Hg15 mi
3:00 pm5 °FLight snow. Partly sunny.14 mph72%30.62 "Hg12 mi
2:00 pm7 °FLight snow. Partly sunny.13 mph72%30.60 "Hg8 mi
1:00 pm7 °FLight snow. Partly sunny.15 mph72%30.58 "Hg8 mi
12:00 pm5 °FLight snow. Partly sunny.10 mph72%30.58 "Hg6 mi
11:00 am1 °FLight snow. Partly sunny.9 mph78%30.57 "Hg10 mi
10:00 am1 °FLight snow. Partly sunny.12 mph78%30.55 "Hg6 mi
9:00 am3 °FLight snow. Mostly cloudy.10 mph78%30.52 "Hg8 mi
8:00 am5 °FLight snow. Overcast.13 mph78%30.49 "Hg8 mi
7:00 am5 °FLight snow. Overcast.12 mph78%30.47 "Hg8 mi
6:00 am5 °FLight snow. Overcast.13 mph78%30.45 "Hg10 mi
5:00 am5 °FLight snow. Overcast.12 mph78%30.43 "Hg5 mi
4:00 am5 °FLight snow. Overcast.12 mph78%30.41 "Hg8 mi
3:00 am5 °FLight snow. Overcast.12 mph72%30.40 "Hg8 mi
2:00 am5 °FLight snow. Overcast.13 mph72%30.38 "Hg6 mi
1:00 am5 °FLight snow. Overcast.14 mph72%30.36 "Hg6 mi
12:00 am5 °FLight snow. Passing clouds.13 mph72%30.34 "Hg6 mi
Weather by CustomWeather, © 2016

See weather overviewHow to use our weather pages